Weather History for Douglas, WY

Change the Weather History Date:

Saturday, September 28, 2013

  Actual Average Record
Temperature  
Mean Temperature 47 °F 52 °F  
Max Temperature 63 °F 69 °F 92 °F (2010)
Min Temperature 30 °F 36 °F 26 °F (2009)
Degree Days  
Heating Degree Days 18 13  
Month to date heating degree days 130 202  
Since 1 July heating degree days 130 243  
Cooling Degree Days 0 0  
Month to date cooling degree days 88 27  
Year to date cooling degree days 739 485  
Moisture  
Dew Point 31 °F    
Average Humidity 62    
Maximum Humidity 92    
Minimum Humidity 32    
Precipitation  
Precipitation 0.00 in 0.04 in 0.04 in (2004)
Month to date precipitation 0.14 1.15  
Year to date precipitation 6.36 11.20  
Sea Level Pressure  
Sea Level Pressure 30.04 in    
Wind  
Wind Speed 13 mph (WNW)    
Max Wind Speed 31 mph    
Max Gust Speed 39 mph    
Visibility 10 miles    
Events      
T = Trace of Precipitation, MM = Missing Value Source: NWS Daily Summary

Daily Weather History Graph

Daily Weather History Graph

Search for Another Location

Airport:

Trip Planner

Search our weather history database for the weather conditions in past years. The results will help you decide how hot, cold, wet, or windy it might be!

Date:

Astronomy

Sep. 28, 2013 Rise Set
Actual Time 6:55 AM MDT 6:47 PM MDT
Civil Twilight 6:27 AM MDT 7:15 PM MDT
Nautical Twilight 5:54 AM MDT 7:48 PM MDT
Astronomical Twilight 5:21 AM MDT 8:21 PM MDT
Moon 12:38 AM MDT (9/28) 3:14 PM MDT (9/28)
Length of Visible Light 12h 48m
Length of Day
11h 51m
Waning Crescent, 35% of the Moon is Illuminated
Sep 28
Waning Crescent
Oct 4
New
Oct 11
First Quarter
Oct 18
Full
Oct 26
Last Quarter

Hourly Weather History & Observations

Time (MDT) Temp. Windchill Dew Point Humidity Pressure Visibility Wind Dir Wind Speed Gust Speed Precip Events Conditions
12:53 AM 35.1 °F 25.9 °F 30.9 °F 85% 30.04 in 10.0 mi NW 13.8 mph - N/A   Clear
1:53 AM 34.0 °F 27.2 °F 30.0 °F 85% 30.06 in 10.0 mi NW 8.1 mph - N/A   Clear
2:53 AM 33.1 °F 26.9 °F 30.0 °F 89% 30.08 in 10.0 mi NW 6.9 mph - N/A   Clear
3:53 AM 30.9 °F 26.2 °F 28.9 °F 92% 30.07 in 10.0 mi WNW 4.6 mph - N/A   Clear
4:53 AM 30.9 °F - 28.0 °F 89% 30.09 in 10.0 mi Calm Calm - N/A   Clear
5:53 AM 33.1 °F 26.9 °F 28.9 °F 85% 30.08 in 10.0 mi West 6.9 mph - N/A   Clear
6:53 AM 36.0 °F 29.6 °F 28.0 °F 73% 30.09 in 10.0 mi WNW 8.1 mph - N/A   Clear
7:53 AM 37.9 °F 32.7 °F 28.9 °F 70% 30.09 in 10.0 mi West 6.9 mph - N/A   Clear
8:53 AM 43.0 °F 39.5 °F 32.0 °F 65% 30.08 in 10.0 mi North 5.8 mph - N/A   Clear
9:53 AM 50.0 °F - 30.9 °F 48% 30.06 in 10.0 mi West 19.6 mph 25.3 mph N/A   Clear
10:53 AM 53.1 °F - 30.0 °F 41% 30.04 in 10.0 mi West 21.9 mph 33.4 mph N/A   Clear
11:53 AM 55.9 °F - 30.0 °F 37% 30.03 in 10.0 mi West 28.8 mph 38.0 mph N/A   Clear
12:53 PM 59.0 °F - 30.0 °F 33% 30.01 in 10.0 mi WNW 20.7 mph 34.5 mph N/A   Clear
1:53 PM 60.1 °F - 33.1 °F 36% 30.01 in 10.0 mi West 25.3 mph 31.1 mph N/A   Clear
2:53 PM 62.1 °F - 34.0 °F 35% 29.99 in 10.0 mi West 23.0 mph 32.2 mph N/A   Clear
3:53 PM 62.1 °F - 32.0 °F 32% 30.00 in 10.0 mi West 23.0 mph 35.7 mph N/A   Clear
4:53 PM 62.1 °F - 32.0 °F 32% 30.01 in 10.0 mi West 25.3 mph 34.5 mph N/A   Clear
5:53 PM 60.1 °F - 35.1 °F 39% 30.01 in 10.0 mi West 15.0 mph - N/A   Clear
6:53 PM 55.9 °F - 35.1 °F 45% 30.03 in 10.0 mi West 13.8 mph - N/A   Clear
7:53 PM 52.0 °F - 35.1 °F 53% 30.05 in 10.0 mi WNW 5.8 mph - N/A   Clear
8:53 PM 50.0 °F - 35.1 °F 57% 30.04 in 10.0 mi West 4.6 mph - N/A   Clear
9:53 PM 52.0 °F - 34.0 °F 50% 30.01 in 10.0 mi WSW 9.2 mph - N/A   Clear
10:53 PM 52.0 °F - 32.0 °F 47% 29.98 in 10.0 mi West 9.2 mph - N/A   Clear
11:53 PM 52.0 °F - 32.0 °F 47% 29.96 in 10.0 mi West 11.5 mph - N/A   Clear